Location: Asheville, NC
(35.6000°N, 82.5500°W)
Time: 22:41:39
(UTC-05:00)

RS-15 - Visible Passes

Search period start: 17 January 2018 00:00
Search period end: 27 January 2018 00:00
Orbit: 1886 x 2158 km, 64.8° (Epoch: 17 January)

Date Brightness Start Highest point End Pass type
(mag) Time Alt. Az. Time Alt. Az. Time Alt. Az.
17 Jan 8.4 19:14:55 10° NW 19:26:14 63° WSW 19:37:00 10° S visible
18 Jan 8.1 18:38:42 10° NNW 18:50:21 82° WSW 19:01:22 10° SSE visible
18 Jan 10.2 20:54:55 10° WNW 21:00:41 16° W 21:06:23 10° SW visible
19 Jan 10.6 06:49:04 10° SE 06:57:07 21° E 07:05:05 10° ENE visible
19 Jan 8.0 18:02:37 10° NNW 18:14:20 80° ENE 18:25:24 10° SSE visible
19 Jan 9.9 20:17:05 10° NW 20:25:15 24° W 20:33:14 10° SSW visible
20 Jan 10.9 06:16:46 10° ESE 06:21:41 13° E 06:26:36 10° ENE visible
20 Jan 9.5 19:40:05 10° NW 19:49:43 33° WSW 19:59:03 10° SSW visible
21 Jan 9.1 19:03:28 10° NW 19:14:05 45° WSW 19:24:15 10° S visible
22 Jan 8.6 18:27:06 10° NW 18:38:20 61° WSW 18:49:02 10° S visible
23 Jan 10.1 06:34:42 10° SSE 06:44:43 31° ESE 06:54:39 10° NE visible
23 Jan 10.5 20:07:28 10° WNW 20:12:44 15° W 20:17:56 10° SW visible
24 Jan 10.5 06:00:49 10° SE 06:09:10 22° E 06:17:28 10° NE visible
24 Jan 10.2 19:29:26 10° NW 19:37:18 22° W 19:45:00 10° SW visible
25 Jan 10.8 05:28:11 10° SE 05:33:44 14° E 05:39:15 10° ENE visible
25 Jan 9.8 18:52:20 10° NW 19:01:47 32° WSW 19:10:56 10° SSW visible
26 Jan 9.0 06:56:22 10° S 07:08:13 57° ESE 07:19:59 10° NE visible
26 Jan 9.3 18:15:41 10° NW 18:26:09 43° WSW 18:36:13 10° S visible
